Location: Oklahoma City
(35.4680°N, 97.5160°W)
Time: 15:15:07
(UTC-05:00)

ISS - All Passes

Search period start: 30 August 2014 00:00
Search period end: 09 September 2014 00:00
Orbit: 414 x 419 km, 51.6° (Epoch: 30 August)

Date Brightness Start Highest point End Pass type
(mag) Time Alt. Az. Time Alt. Az. Time Alt. Az.
30 Aug - 11:08:51 10° SW 11:12:10 88° SE 11:15:30 10° NE daylight
30 Aug - 12:47:38 10° NW 12:49:19 13° NNW 12:50:59 10° N daylight
30 Aug - 17:40:25 10° NNW 17:43:21 28° NE 17:46:16 10° E daylight
30 Aug - 19:17:13 10° WNW 19:20:00 25° SW 19:22:47 10° S daylight
31 Aug - 10:20:33 10° SSW 10:23:43 43° SE 10:26:54 10° ENE daylight
31 Aug - 11:58:08 10° WNW 12:00:36 19° NNW 12:03:04 10° NNE daylight
31 Aug - 16:52:17 10° NNW 16:54:41 18° NNE 16:57:04 10° ENE daylight
31 Aug - 18:28:22 10° WNW 18:31:36 48° SW 18:34:48 10° SSE daylight
01 Sep - 09:32:38 10° S 09:35:18 23° SE 09:37:59 10° ENE daylight
01 Sep - 11:08:57 10° W 11:11:55 30° NW 11:14:54 10° NNE daylight
01 Sep - 16:04:24 10° N 16:05:55 13° NNE 16:07:27 10° NE daylight
01 Sep - 17:39:46 10° NW 17:43:06 84° NE 17:46:25 10° SE daylight
02 Sep - 08:45:32 10° SSE 08:46:55 12° SE 08:48:19 10° ESE daylight
02 Sep - 10:20:03 10° WSW 10:23:17 52° NW 10:26:33 10° NE daylight
02 Sep - 16:51:18 10° NW 16:54:30 43° NE 16:57:42 10° ESE daylight
02 Sep - 18:29:00 10° W 18:30:57 15° SW 18:32:53 10° SSW daylight
03 Sep - 09:31:23 10° SW 09:34:42 80° SE 09:38:02 10° NE daylight
03 Sep - 11:09:58 10° WNW 11:11:48 14° NNW 11:13:38 10° N daylight
03 Sep - 16:02:58 10° NNW 16:05:49 26° NNE 16:08:40 10° E daylight
03 Sep - 17:39:38 10° WNW 17:42:31 27° SW 17:45:23 10° SSE daylight
04 Sep - 08:43:02 10° SSW 08:46:09 39° SE 08:49:17 10° ENE daylight
04 Sep - 10:20:25 10° W 10:22:59 20° NNW 10:25:33 10° NNE daylight
04 Sep - 15:14:46 10° NNW 15:17:02 17° NNE 15:19:19 10° ENE daylight
04 Sep - 16:50:44 10° WNW 16:54:00 54° SW 16:57:14 10° SSE daylight
05 Sep - 07:55:06 10° S 07:57:39 20° SE 08:00:11 10° E daylight
05 Sep - 09:31:11 10° WSW 09:34:13 32° NW 09:37:15 10° NNE daylight
05 Sep - 14:26:51 10° N 14:28:10 12° NNE 14:29:29 10° NE daylight
05 Sep - 16:02:03 10° NW 16:05:23 75° NE 16:08:41 10° SE daylight
06 Sep - 07:08:16 10° SE 07:09:10 11° SE 07:10:03 10° ESE daylight
06 Sep - 08:42:12 10° WSW 08:45:29 58° NW 08:48:46 10° NE daylight
06 Sep - 10:22:07 10° NW 10:22:47 10° NNW 10:23:28 10° N daylight
06 Sep - 15:13:30 10° NW 15:16:40 39° NE 15:19:49 10° ESE daylight
06 Sep - 16:50:58 10° W 16:53:08 16° SW 16:55:18 10° S daylight
07 Sep - 07:53:30 10° SW 07:56:48 71° SE 08:00:07 10° NE daylight
07 Sep - 09:31:51 10° WNW 09:33:50 15° NNW 09:35:50 10° N daylight
07 Sep - 14:25:05 10° NNW 14:27:52 24° NNE 14:30:37 10° E daylight
07 Sep - 16:01:37 10° WNW 16:04:35 30° SW 16:07:33 10° SSE daylight
08 Sep - 07:05:06 10° SSW 07:08:09 34° SE 07:11:13 10° ENE daylight
08 Sep - 08:42:15 10° W 08:44:56 22° NNW 08:47:36 10° NNE daylight
08 Sep - 13:36:49 10° NNW 13:38:57 16° NNE 13:41:05 10° ENE daylight
08 Sep - 15:12:39 10° NW 15:15:57 62° SW 15:19:13 10° SE daylight
